This demonstration page uses our WeatherBlox Daily Observations layout. Learn more.

Left ArrowRight Arrow

Hourly Observations for July 8, 2016

Temp ( °F °C ) Dew Point ( °F °C ) Humidity (%) Winds ( mph kmh ) Pressure ( in mb ) Visibility ( mi km ) Precip ( " mm )
12:53 am 00:53 Clear 80 26.7 69 20.6 69 69 SW 5 7 30.00 1016 10 16 0.00 0.00
1:53 am 01:53 Clear 80 26.7 70 21.1 71 71 SSW 3 6 30.00 1016 10 16 0.00 0.00
2:53 am 02:53 Clear 78 25.6 70 21.1 76 76 SW 5 7 30.00 1016 10 16 0.00 0.00
3:53 am 03:53 Clear 78 25.6 70 21.1 76 76 Calm 29.99 1016 10 16 0.00 0.00
4:53 am 04:53 Clear 78 25.6 70 21.1 76 76 S 3 6 30.00 1016 10 16 0.00 0.00
5:53 am 05:53 Clear 78 25.6 70 21.1 76 76 SSW 5 7 30.01 1016 10 16 0.00 0.00
6:53 am 06:53 Mostly Sunny 78 25.6 71 21.7 79 79 SSW 6 9 30.03 1017 10 16 0.00 0.00
7:53 am 07:53 Sunny 79 26.1 71 21.7 77 77 SW 6 9 30.04 1017 10 16 0.00 0.00
8:53 am 08:53 Sunny 81 27.2 72 22.2 74 74 SW 7 11 30.05 1018 10 16 0.00 0.00
9:53 am 09:53 Sunny 86 30 72 22.2 63 63 W 13 20 30.05 1018 10 16 0.00 0.00
10:53 am 10:53 Sunny 87 30.6 73 22.8 63 63 W 10 17 30.05 1018 10 16 0.00 0.00
11:53 am 11:53 Mostly Sunny 90 32.2 73 22.8 58 58 W 14 22 30.05 1018 10 16 0.00 0.00
12:53 pm 12:53 Partly Cloudy 92 33.3 72 22.2 52 52 W 12 19 30.03 1017 10 16 0.00 0.00
1:53 pm 13:53 Partly Cloudy 92 33.3 71 21.7 51 51 W 13 20 30.01 1016 10 16 0.00 0.00
2:53 pm 14:53 Partly Cloudy 94 34.4 70 21.1 46 46 W 7 11 29.98 1015 10 16 0.00 0.00
3:53 pm 15:53 Mostly Cloudy 93 33.9 70 21.1 47 47 WSW 10 17 29.97 1015 10 16 0.00 0.00
4:53 pm 16:53 Partly Cloudy 94 34.4 68 20 43 43 W 12 19 29.95 1014 10 16 0.00 0.00
5:53 pm 17:53 Partly Cloudy 95 35 69 20.6 43 43 WSW 8 13 29.95 1014 10 16 0.00 0.00
6:53 pm 18:53 Sunny 94 34.4 68 20 43 43 W 12 19 29.95 1014 10 16 0.00 0.00
7:53 pm 19:53 Partly Cloudy 92 33.3 69 20.6 47 47 WNW 7 11 29.95 1014 10 16 0.00 0.00
8:31 pm 20:31 Sunny with Nearby Thunderstorms 91 32.8 69 20.6 49 49 W 5 7 29.94 1014 10 16 0.00 0.00
8:48 pm 20:48 Sunny 90 32 70 21 52 52 W 3 6 29.94 1014 10 16 0.00 0.00
8:53 pm 20:53 Clear 90 32.2 70 21.1 52 52 W 3 6 29.96 1015 10 16 0.00 0.00
9:53 pm 21:53 Clear 83 28.3 73 22.8 72 72 Calm 29.99 1016 10 16 0.00 0.00
10:53 pm 22:53 Clear 86 30 72 22.2 63 63 SW 3 6 29.98 1015 10 16 0.00 0.00
11:53 pm 23:53 Mostly Clear 83 28.3 72 22.2 70 70 Calm 29.98 1015 10 16 0.00 0.00

Powered by AerisWeather